Change the Weather History Date:

Thursday, March 7, 2013

  Actual Average Record
Temperature  
Mean Temperature 38 °F 31 °F  
Max Temperature 59 °F 47 °F 63 °F (1972)
Min Temperature 17 °F 14 °F -12 °F (1939)
Degree Days  
Heating Degree Days 27 34  
Month to date heating degree days 218 247  
Since 1 July heating degree days 7005 6576  
Cooling Degree Days 0 0  
Month to date cooling degree days 0 0  
Year to date cooling degree days 0 0  
Moisture  
Dew Point 10 °F    
Average Humidity 40    
Maximum Humidity 68    
Minimum Humidity 11    
Precipitation  
Precipitation 0.00 in 0.02 in 0.39 in (2001)
Month to date precipitation T 0.10  
Year to date precipitation 0.22 0.62  
Snow  
Snow 0.00 in 0.10 in 1.50 in (1942)
Month to date snowfall T 1.0  
Since 1 July snowfall 15.5 19.1  
Snow Depth 0.00 in    
Sea Level Pressure  
Sea Level Pressure 29.99 in    
Wind  
Wind Speed 7 mph (SSW)    
Max Wind Speed 24 mph    
Max Gust Speed 30 mph    
Visibility 10 miles    
Events      
T = Trace of Precipitation, MM = Missing Value Source: NWS Daily Summary

Daily Weather History Graph

Daily Weather History Graph

Search for Another Location

Airport or City:

Trip Planner

Search our weather history database for the weather conditions in past years. The results will help you decide how hot, cold, wet, or windy it might be!

Date:

Astronomy

Mar. 07, 2013 Rise Set
Actual Time 6:25 AM MST 6:03 PM MST
Civil Twilight 5:59 AM MST 6:29 PM MST
Nautical Twilight 5:29 AM MST 6:59 PM MST
Astronomical Twilight 4:59 AM MST 7:30 PM MST
Moon 3:23 AM MST (3/7) 1:58 PM MST (3/7)
Length of Visible Light 12h 29m
Length of Day
11h 37m
Waning Crescent, 19% of the Moon is Illuminated
Mar 7
Waning Crescent
Mar 11
New
Mar 19
First Quarter
Mar 27
Full
Apr 2
Last Quarter

Hourly Weather History & Observations

Time (MST) Temp. Windchill Dew Point Humidity Pressure Visibility Wind Dir Wind Speed Gust Speed Precip Events Conditions
12:52 AM 24.1 °F 19.7 °F 12.0 °F 60% 29.98 in 10.0 mi East 3.5 mph - N/A   Clear
1:52 AM 23.0 °F 18.4 °F 10.9 °F 60% 29.98 in 10.0 mi South 3.5 mph - N/A   Clear
2:52 AM 23.0 °F - 12.0 °F 63% 29.97 in 10.0 mi Calm Calm - N/A   Clear
3:52 AM 19.0 °F - 10.9 °F 71% 30.00 in 10.0 mi Calm Calm - N/A   Clear
4:52 AM 23.0 °F - 12.9 °F 65% 29.98 in 10.0 mi Calm Calm - N/A   Clear
5:52 AM 23.0 °F - 12.2 °F 63% 30.06 in 10.0 mi Calm Calm - N/A   Clear
6:52 AM 21.0 °F - 12.9 °F 71% 30.11 in 10.0 mi Calm Calm - N/A   Clear
7:52 AM 33.8 °F 27.7 °F 17.6 °F 52% 30.09 in 10.0 mi SSW 6.9 mph - N/A   Clear
8:52 AM 43.0 °F 37.7 °F 17.1 °F 35% 30.05 in 10.0 mi SSW 9.2 mph - N/A   Clear
9:52 AM 48.0 °F - 12.0 °F 24% 30.03 in 10.0 mi Calm Calm - N/A   Clear
10:52 AM 54.0 °F - 7.0 °F 15% 30.01 in 10.0 mi SSW 12.7 mph 18.4 mph N/A   Clear
11:52 AM 55.9 °F - 3.0 °F 12% 29.98 in 10.0 mi West 11.5 mph 25.3 mph N/A   Clear
12:12 PM 57.2 °F - 3.2 °F 11% 30.06 in 10.0 mi SW 10.4 mph 21.9 mph N/A   Clear
12:52 PM 55.9 °F - 5.0 °F 13% 29.96 in 10.0 mi South 5.8 mph 19.6 mph N/A   Clear
1:52 PM 57.9 °F - 3.0 °F 11% 29.92 in 10.0 mi SSW 15.0 mph 24.2 mph N/A   Clear
2:52 PM 57.9 °F - 5.0 °F 12% 29.92 in 10.0 mi SSW 20.7 mph 25.3 mph N/A   Clear
3:52 PM 55.9 °F - 3.0 °F 12% 29.95 in 10.0 mi SW 20.7 mph 28.8 mph N/A   Clear
4:52 PM 54.0 °F - 7.0 °F 15% 29.94 in 10.0 mi WSW 15.0 mph - N/A   Clear
5:52 PM 48.9 °F - 12.0 °F 23% 29.97 in 10.0 mi WSW 11.5 mph - N/A   Clear
6:52 PM 39.9 °F 36.7 °F 14.0 °F 35% 30.03 in 10.0 mi WSW 4.6 mph - N/A   Clear
7:52 PM 36.0 °F 31.1 °F 15.1 °F 43% 29.99 in 10.0 mi West 5.8 mph - N/A   Clear
8:52 PM 30.0 °F 22.4 °F 12.9 °F 49% 29.98 in 10.0 mi SSE 8.1 mph - N/A   Clear
9:52 PM 26.1 °F - 12.9 °F 58% 29.98 in 10.0 mi Calm Calm - N/A   Clear
10:52 PM 28.4 °F - 12.2 °F 51% 30.03 in 10.0 mi Calm Calm - N/A   Partly Cloudy
11:52 PM 30.0 °F 21.7 °F 14.0 °F 51% 29.94 in 10.0 mi South 9.2 mph - N/A   Mostly Cloudy